TimeEDT,TemperatureF,Dew PointF,Humidity,Sea Level PressureIn,VisibilityMPH,Wind Direction,Wind SpeedMPH,Gust SpeedMPH,PrecipitationIn,Events,Conditions,WindDirDegrees,DateUTC
12:53 AM,75.9,61.0,60,30.16,10.0,ENE,11.5,-,N/A,,Scattered Clouds,70,2013-05-26 04:53:00
1:53 AM,75.9,57.9,54,30.15,10.0,ENE,6.9,-,N/A,,Partly Cloudy,70,2013-05-26 05:53:00
2:53 AM,75.0,60.1,60,30.13,10.0,NE,6.9,-,N/A,,Partly Cloudy,40,2013-05-26 06:53:00
3:53 AM,73.0,61.0,66,30.12,10.0,NNE,3.5,-,N/A,,Clear,30,2013-05-26 07:53:00
4:53 AM,73.9,61.0,64,30.12,10.0,NNE,3.5,-,N/A,,Partly Cloudy,30,2013-05-26 08:53:00
5:53 AM,75.0,63.0,66,30.12,10.0,ENE,6.9,-,N/A,,Partly Cloudy,60,2013-05-26 09:53:00
6:53 AM,75.0,64.0,69,30.12,10.0,ENE,8.1,-,N/A,,Scattered Clouds,70,2013-05-26 10:53:00
7:53 AM,75.9,66.0,71,30.13,10.0,NNE,8.1,-,N/A,,Mostly Cloudy,30,2013-05-26 11:53:00
8:53 AM,79.0,64.9,62,30.15,10.0,ESE,16.1,-,N/A,,Mostly Cloudy,110,2013-05-26 12:53:00
9:53 AM,80.1,64.9,60,30.16,10.0,ENE,13.8,-,N/A,,Mostly Cloudy,70,2013-05-26 13:53:00
10:53 AM,80.1,64.0,58,30.18,10.0,East,16.1,21.9,N/A,,Mostly Cloudy,100,2013-05-26 14:53:00
11:53 AM,81.0,64.0,56,30.19,10.0,ENE,15.0,21.9,N/A,,Mostly Cloudy,70,2013-05-26 15:53:00
12:53 PM,82.0,63.0,52,30.18,10.0,NE,13.8,-,N/A,,Mostly Cloudy,50,2013-05-26 16:53:00
1:53 PM,82.0,63.0,52,30.17,10.0,East,13.8,21.9,N/A,,Mostly Cloudy,90,2013-05-26 17:53:00
2:53 PM,82.0,64.0,54,30.16,10.0,ENE,15.0,21.9,N/A,,Mostly Cloudy,70,2013-05-26 18:53:00
3:53 PM,81.0,63.0,54,30.14,10.0,ENE,15.0,-,N/A,,Mostly Cloudy,60,2013-05-26 19:53:00
4:53 PM,80.1,63.0,56,30.14,10.0,ENE,12.7,19.6,N/A,,Mostly Cloudy,60,2013-05-26 20:53:00
5:53 PM,80.1,63.0,56,30.12,10.0,NE,12.7,-,N/A,,Mostly Cloudy,50,2013-05-26 21:53:00
6:53 PM,78.1,62.1,58,30.12,10.0,ENE,12.7,-,N/A,,Mostly Cloudy,60,2013-05-26 22:53:00
7:53 PM,77.0,62.1,60,30.13,10.0,ENE,13.8,-,N/A,,Mostly Cloudy,60,2013-05-26 23:53:00
8:53 PM,77.0,62.1,60,30.13,10.0,ENE,12.7,-,N/A,,Mostly Cloudy,70,2013-05-27 00:53:00
9:53 PM,77.0,62.1,60,30.14,10.0,ENE,12.7,-,N/A,,Mostly Cloudy,70,2013-05-27 01:53:00
10:53 PM,77.0,61.0,58,30.17,10.0,East,12.7,-,N/A,,Mostly Cloudy,80,2013-05-27 02:53:00
11:53 PM,75.9,60.1,58,30.17,10.0,East,16.1,-,N/A,,Mostly Cloudy,80,2013-05-27 03:53:00